Simultaneous Nadir Overpasses (SNOs) Predictions

Prediction of SNOs between GOES-16 and METOP-C Satellite Orbit:

Table of predicted SNOs for the next 14.0 days since TLE Epoch: 10/17/2023
Index Date Time (GOES-16) GOES-16 Lat,Lon METOP-C Lat,Lon Distance(km) Time Diff (sec)
1 10/17/2023 02:31:32 0.05, -75.20 0.06, -75.25 5.01 80
2 10/19/2023 14:29:44 -0.04, -75.22 -0.12, -74.80 46.90 80
3 10/21/2023 02:48:46 0.04, -75.20 -0.92, -79.40 478.56 80
4 10/22/2023 02:25:27 0.03, -75.20 0.23, -74.41 90.82 80
5 10/23/2023 14:44:18 -0.03, -75.22 0.78, -78.97 426.34 80
6 10/24/2023 14:26:19 -0.03, -75.23 -0.32, -73.97 143.51 80
7 10/26/2023 02:45:20 0.03, -75.22 -0.70, -78.57 380.39 80
8 10/27/2023 02:22:01 0.03, -75.23 0.41, -73.57 189.93 80
9 10/28/2023 14:40:52 -0.03, -75.27 0.60, -78.13 325.89 80
10 10/29/2023 14:22:53 -0.03, -75.28 -0.50, -73.13 244.77 80
